Location: Laporte
(40.6264°N, 105.1378°W)
Time: 15:17:27
(UTC+00:00)

Envisat - Pass Details

Date: 25 August 2022
Orbit: 764 x 765 km, 98.2° (Epoch: 26 September)

Event Time Altitude Azimuth Distance (km) Brightness Sun altitude
Rises 09:57:03 0° 36° (NE) 3,237 7.5 -24.8°
Reaches altitude 10° 10:01:11 10° 69° (ENE) 2,303 6.4 -24.2°
Maximum altitude 10:02:50 11° 89° (E) 2,197 6.0 -24.0°
Drops below altitude 10° 10:04:29 10° 108° (ESE) 2,297 5.8 -23.7°
Sets 10:08:34 0° 141° (SE) 3,216 6.2 -23.1°
